• Join FlightAware (Why Join?)
  • Login
  • US Flag 
08:08AM EST


 

Airport Tracker/Info


-or-


 

Live Flight TrackerFlight Track Log ✈ GJS6220 ✈ 30-Apr-2012 ✈ KDTW - KLGA

Flight Track Log - Related Links

Times and Time Zones

All times are in EDT time to prevent confusion due to time zone crossing. See the GJS6220 flight status page for this flight to view local times or setup timezone preferences in your user account.

Time Position Orientation Groundspeed Altitude Reporting Facility
EDT Latitude Longitude Course Direction KTS MPH feet Rate Location/Type
07:44PM 42.2081 -83.3528 171° South 149 171 1,200  Level Cleveland Center
07:45PM 42.1728 -83.3456 167° South 213 245 2,500 2,563 Climbing Cleveland Center
07:46PM 42.1022 -83.3231 131° Southeast 267 307 5,600 3,364 Climbing Cleveland Center
07:46PM 42.0581 -83.2542 78° East 307 353 8,500 2,491 Climbing Cleveland Center
07:47PM 42.0728 -83.1567 74° East 333 383 10,000 1,500 Climbing Cleveland Center
07:48PM 42.1031 -83.0181 74° East 369 425 11,500 1,800 Climbing Cleveland Center
07:49PM 42.1353 -82.8653 74° East 402 463 13,600 2,300 Climbing Cleveland Center
07:50PM 42.1719 -82.6928 75° East 419 482 16,100 1,850 Climbing Cleveland Center
07:51PM 42.2039 -82.5314 83° East 435 501 17,300 1,350 Climbing Cleveland Center
07:52PM 42.2192 -82.3664 103° East 440 506 18,800 1,500 Climbing Cleveland Center
07:53PM 42.1903 -82.1972 106° East 440 506 20,300 1,550 Climbing Cleveland Center
07:54PM 42.1592 -82.0481 106° East 455 524 21,900 1,700 Climbing Cleveland Center
07:55PM 42.1197 -81.8597 98° East 465 535 23,700 1,600 Climbing Cleveland Center
07:56PM 42.1006 -81.6831 94° East 470 541 25,100 1,400 Climbing Cleveland Center
07:57PM 42.0897 -81.4981 97° East 489 563 26,500 1,450 Climbing Cleveland Center
07:58PM 42.0722 -81.3161 108° East 489 563 28,000 1,450 Climbing Cleveland Center
07:59PM 42.0294 -81.1422 109° East 483 556 29,400 1,400 Climbing Cleveland Center
08:00PM 41.9844 -80.9658 110° East 493 567 30,800 1,450 Climbing Cleveland Center
08:01PM 41.9369 -80.7897 110° East 493 567 32,300 1,300 Climbing Cleveland Center
08:02PM 41.8953 -80.6361 109° East 493 567 33,400 1,300 Climbing Cleveland Center
08:03PM 41.8517 -80.4633 110° East 486 559 34,900 1,250 Climbing Cleveland Center
08:04PM 41.8053 -80.2906 109° East 493 567 35,900 900 Climbing Cleveland Center
08:05PM 41.7589 -80.1128 109° East 493 567 36,700 550 Climbing Cleveland Center
08:06PM 41.7122 -79.9350 110° East 499 574 37,000 150 Climbing Cleveland Center
08:07PM 41.6608 -79.7467 110° East 499 574 37,000  Level Cleveland Center
08:08PM 41.6158 -79.5778 110° East 488 562 37,000  Level Cleveland Center
08:09PM 41.5706 -79.4092 110° East 488 562 37,000  Level Cleveland Center
08:10PM 41.5228 -79.2381 111° Southeast 488 562 37,000  Level Cleveland Center
08:11PM 41.4747 -79.0672 110° East 488 562 37,000  Level Cleveland Center
08:12PM 41.4286 -78.8967 110° East 488 562 37,000  Level Cleveland Center
08:13PM 41.3800 -78.7236 111° Southeast 488 562 37,000 -550 Level Cleveland Center
08:14PM 41.3356 -78.5672 110° East 494 568 35,900 -1,304 Descending Cleveland Center
08:16PM 41.2581 -78.2922 109° East 497 572 33,500 -1,074 Descending New York Center
08:17PM 41.2144 -78.1247 100° East 486 559 33,000 -254 Descending New York Center
08:18PM 41.1919 -77.9483 100° East 481 554 33,000  Level New York Center
08:19PM 41.1692 -77.7722 100° East 481 554 33,000 -843 Level New York Center
08:20PM 41.1458 -77.5989 99° East 481 554 31,300 -1,736 Descending New York Center
08:21PM 41.1264 -77.4289 101° East 476 548 29,500 -1,850 Descending New York Center
08:22PM 41.1022 -77.2642 100° East 465 535 27,600 -1,866 Descending New York Center
08:23PM 41.0797 -77.0994 100° East 455 524 25,800 -1,800 Descending New York Center
08:24PM 41.0592 -76.9381 101° East 450 518 24,000 -1,785 Descending New York Center
08:25PM 41.0361 -76.7789 102° East 445 512 22,200 -1,785 Descending New York Center
08:26PM 41.0106 -76.6200 107° East 445 512 20,400 -1,884 Descending New York Center
08:27PM 40.9708 -76.4517 107° East 439 505 18,400 -1,261 Descending New York Center
08:28PM 40.9364 -76.3031 109° East 433 498 17,900 -915 Descending New York Center
08:29PM 40.8992 -76.1572 107° East 428 493 16,600 -1,339 Descending New York Center
08:30PM 40.8697 -76.0261 109° East 423 487 15,200 -836 Descending New York Center
08:31PM 40.8322 -75.8806 108° East 418 481 14,900 -150 Descending New York Center
08:32PM 40.7950 -75.7297 107° East 407 468 14,900 -872 Level New York Center
08:33PM 40.7631 -75.5958 110° East 401 461 13,200 -1,008 Descending New York Center
08:34PM 40.7267 -75.4619 104° East 389 448 12,900 -344 Descending New York Center
08:35PM 40.7044 -75.3425 103° East 382 440 12,500 -1,091 Descending New York Center
08:36PM 40.6803 -75.2097 118° Southeast 356 410 10,700 -1,322 Descending New York Center
08:37PM 40.6403 -75.1114 135° Southeast 316 364 9,900 -403 Descending New York Center
08:38PM 40.5864 -75.0394 116° Southeast 302 348 9,900  Level New York Center
08:39PM 40.5483 -74.9389 110° East 302 348 9,900 50 Level New York Center
08:40PM 40.5225 -74.8472 113° Southeast 282 325 10,000 50 Climbing New York Center
08:41PM 40.4906 -74.7469 113° Southeast 269 310 10,000 -454 Level New York Center
08:42PM 40.4603 -74.6553 113° Southeast 269 310 9,100 -508 Descending New York Center
08:43PM 40.4356 -74.5775 108° East 252 290 9,000 -49 Descending New York Center
08:44PM 40.4172 -74.5031 112° Southeast 234 269 9,000 -248 Level New York Center
08:45PM 40.3908 -74.4169 109° East 229 264 8,500 -1,008 Descending New York Center
08:46PM 40.3703 -74.3397 59° Northeast 229 264 7,000 -750 Descending New York Center
08:47PM 40.3969 -74.2811 38° Northeast 184 212 7,000  Level New York Center
08:48PM 40.4419 -74.2344 40° Northeast 191 220 7,000 -50 Level New York Center
08:49PM 40.4850 -74.1872 33° Northeast 205 236 6,900 -885 Descending New York Center
08:50PM 40.5322 -74.1461 29° Northeast 205 236 5,200 -1,426 Descending New York Center
08:51PM 40.5811 -74.1103 29° Northeast 200 230 4,000 -610 Descending New York Center
08:52PM 40.6300 -74.0742 24° Northeast 195 224 4,000  Level New York Center
08:53PM 40.7000 -74.0333 14° North 207 238 4,000  Level New York TRACON
08:54PM 40.7500 -74.0167 27° Northeast 209 241 4,000  Level New York TRACON
08:55PM 40.8000 -73.9833 21° North 208 239 4,000  Level New York TRACON
08:56PM 40.8667 -73.9500 37° Northeast 211 243 4,000  Level New York TRACON
08:57PM 40.9000 -73.9167 37° Northeast 207 238 4,000  Level New York TRACON
08:58PM 40.9500 -73.8667 49° Northeast 198 228 4,000 -400 Level New York TRACON
08:59PM 40.9833 -73.8167 105° East 198 228 3,200 -500 Descending New York TRACON
09:00PM 40.9667 -73.7333 194° South 177 204 3,000 -95 Descending New York TRACON
09:01PM 40.9167 -73.7500 217° Southwest 175 201 3,000 -300 Level New York TRACON
09:02PM 40.8833 -73.7833 217° Southwest 161 185 2,400 -650 Descending New York TRACON
09:03PM 40.8500 -73.8167 217° Southwest 115 132 1,700 -632 Descending New York TRACON
09:04PM 40.8333 -73.8333 217° Southwest 118 136 1,200 -650 Descending New York TRACON
09:05PM 40.8000 -73.8667 217° Southwest 120 138 400 -727 Descending New York TRACON